Regional Weather Roundup
Issued by NWS Newport/Morehead, NC

Current Version | Previous Version | Text Only | Print | Product List | Glossary Off
Versions: 1 2 3 4 5 6 7 8 9 10 11 12 13 14 15 16 17 18 19 20 21 22 23 24 25 26 27 28 29 30 31 32 33 34 35 36 37 38 39 40 41 42 43 44 45 46 47 48 49 50
000 ASUS42 KMHX 290722 RWRMHX WEATHER ROUNDUP FOR EASTERN NORTH CAROLINA NATIONAL WEATHER SERVICE NEWPORT/MOREHEAD CITY NC 200 AM EST MON DEC 29 2014 NOTE: "FAIR" INDICATES FEW OR NO CLOUDS BELOW 12,000 FEET WITH NO SIGNIFICANT WEATHER AND/OR OBSTRUCTIONS TO VISIBILITY NCZ015>017-031-032-045>047-102-103-290800- NORTH COAST CITY SKY/WX TMP DP RH WIND PRES REMARKS EDENTON CLOUDY 55 55 98 S3 30.05S FOG ELIZABETH CITY FOG 59 56 89 CALM 30.05R VSB 3/4 KITTY HAWK FOG 56 56 100 CALM 30.04S VSB 1/2 MANTEO CLOUDY 55 55 100 CALM 30.06R FOG $$ NCZ045>047-081-094-103-104-290800- CENTRAL COAST CITY SKY/WX TMP DP RH WIND PRES REMARKS FRISCO CLOUDY 59 57 93 W3 30.05S SWANQUARTER N/A 57 N/A N/A SW1 30.03R $$ NCZ095-097-098-100-101-290800- SOUTHERN COAST CITY SKY/WX TMP DP RH WIND PRES REMARKS BEAUFORT CLOUDY 58 58 100 CALM 30.06R CEDAR ISLAND N/A 57 N/A N/A SW2 30.09S JACKSONVILLE CLOUDY 60 58 92 CALM 30.05S PINEY ISLAND CLOUDY 60 56 86 W3 30.06R WILMINGTON CLOUDY 60 59 96 CALM 30.05S $$ NCZ011>013-027>030-043-044-078>080-089-090>093-098-290800- COASTAL PLAIN CITY SKY/WX TMP DP RH WIND PRES REMARKS AHOSKIE FOG 53 52 97 CALM 30.06R VSB<1/4 CLINTON FOG 59 59 100 CALM 30.04F VSB 1 ELIZABETHTOWN CLOUDY 61 61 99 CALM 30.04F GOLDSBORO CLOUDY 57 57 100 S2 30.04R FOG GREENVILLE FOG 55 55 100 S3 30.06F VSB 1/4 HAVELOCK CLOUDY 61 58 90 CALM 30.07S KENANSVILLE FOG 59 58 97 CALM 30.06S VSB 1 KINSTON MOCLDY 59 59 99 S3 30.05F FOG NEW BERN LGT RAIN 62 58 86 CALM 30.07S FOG RICHLANDS CLOUDY 61 57 88 CALM 30.06F VSB 1/2 ROCKY MOUNT FOG 53 52 96 CALM 30.05S VSB 1/4 WASHINGTON CLOUDY 58 58 99 CALM 30.05F WHITEVILLE CLOUDY 60 58 94 CALM 30.04S $$ AMZ130-135-150-152-154-156-158-170-250-252-270-ANZ085-086-088-633-658-670-290800- MARINE OBSERVATIONS STATION/POSITION TIME TEMP WIND PRES WAVE SWELL AIR SEA DIR/SP/G HT/PER HT/PER (UTC) (F) (DEG/KT/KT) (MB) (FT/S) (FT/S) CHESAPEAKE LIGHT 0700 51 20/ 13/ 13 1018.0 64 E VA BEACH 0700 55 53 280/ 4/ 6 1016.8 2/13 2/13 DUCK 0700 58 50 290/ 7/ 7 1016.7 2 E DUCK 0700 49 N/A 2/13 2/13 10 NE DUCK 0700 50 N/A 2/13 2/13 OREGON INLET 0700 56 53 310/ 2/ 3 1017.5 13E OREGON INLT 0700 61 N/A 2/13 2/13 HATTERAS CG 0700 60 56 240/ 2/ 3 1018.0 DIAMOND BUOY 0700 64 1017.6 3/12 17 S OCRACOKE NOT AVBL CAPE LOOKOUT 0700 58 290/ 4/ 5 1017.4 BEAUFORT LAB 0700 58 56 360/ 3/ 3 1016.7 30 SE NEW RIVER 0700 60 60 270/ 6/ 8 1018.0 3/12 2/12 5 SE WRIGHTSVLE NOT AVBL 225 S CAPE HAT 0605 73 74 210/ 16/ 19 1019.8 4/11 3/11 41 SE CHARLESTON 0700 72 73 220/ 12/ 16 1017.0 3/12 2/12 $$

USA.gov is the U.S. government's official web portal to all federal, state and local government web resources and services.